User: anonymous   Login
Location: Unspecified
(0.0000°N, 0.0000°E)
Time: 23:45:49
(UTC+00:00)
Language:

SAR-Lupe-4 - Orbit

View from above orbital plane
View from above orbital plane
View from above satellite
View from above satellite

Ground track
Ground track

The orbit data is extracted from the following two-line orbital elements,

1 32750U 08014A   19144.05826292 0.00000000  00000-0  00000-0 0    06
2 32750  98.1203 266.2017 0002000  99.1126 260.8873 15.27501975    02
Epoch (UTC): 24 May 2019 01:23:53
Eccentricity: 0.0002000
inclination: 98.1203°
perigee height: 482 km
apogee height: 484 km
right ascension of ascending node: 266.2017°
argument of perigee: 99.1126°
revolutions per day: 15.27501975
mean anomaly at epoch: 260.8873°
orbit number at epoch: 0

The dashed part of the orbit path shows where the satellite is in the earth's shadow,  

DLR